Location: El Mouella
(16.4949°N, 9.1594°W)
Time: 15:12:37
(UTC+00:00)

Cosmos 2221 Rocket - Pass Details

Date: 02 June 2020
Orbit: 620 x 648 km, 82.5° (Epoch: 05 July)

Event Time Altitude Azimuth Distance (km) Brightness Sun altitude
Exits shadow 20:28:43 30° 160° (SSE) 1,142 4.5 -18.4°
Maximum altitude 20:30:45 58° 93° (E) 744 3.6 -18.8°
Drops below altitude 10° 20:35:11 10° 14° (NNE) 2,033 6.4 -19.7°
Sets 20:37:28 0° 11° (N) 2,947 7.3 -20.2°
